Time,TemperatureF,DewpointF,PressureIn,WindDirection,WindDirectionDegrees,WindSpeedMPH,WindSpeedGustMPH,Humidity,HourlyPrecipIn,Conditions,Clouds,dailyrainin,SoftwareType,DateUTC
2013-09-27 00:00:00,64.3,61.0,29.85,ENE,63,0.0,2.0,89,0.00,,,0.00,Wunderground v.1.15,2013-09-27 05:00:00,
2013-09-27 00:03:00,64.2,60.9,29.85,ENE,63,0.0,0.0,89,0.00,,---,0.00,VWS V14.01,2013-09-27 05:03:00,
2013-09-27 00:05:00,64.0,60.7,29.86,ENE,63,0.0,2.0,89,0.00,,,0.00,Wunderground v.1.15,2013-09-27 05:05:00,
2013-09-27 00:08:00,63.9,60.6,29.86,ENE,63,0.0,0.0,89,0.00,,---,0.00,VWS V14.01,2013-09-27 05:08:00,
2013-09-27 00:10:00,63.9,60.6,29.86,ENE,63,0.0,0.0,89,0.00,,,0.00,Wunderground v.1.15,2013-09-27 05:10:00,
2013-09-27 00:13:00,63.5,60.2,29.86,ENE,63,0.0,0.0,89,0.00,,---,0.00,VWS V14.01,2013-09-27 05:13:00,
2013-09-27 00:15:00,63.5,60.5,29.86,ENE,63,0.0,0.0,90,0.00,,,0.00,Wunderground v.1.15,2013-09-27 05:15:00,
2013-09-27 00:19:00,63.4,60.4,29.86,ENE,63,0.0,0.0,90,0.00,,---,0.00,VWS V14.01,2013-09-27 05:19:00,
2013-09-27 00:20:00,63.4,60.4,29.86,ENE,63,0.0,0.0,90,0.00,,,0.00,Wunderground v.1.15,2013-09-27 05:20:00,
2013-09-27 00:24:00,63.2,60.2,29.86,ENE,63,0.0,0.0,90,0.00,,---,0.00,VWS V14.01,2013-09-27 05:24:00,
2013-09-27 00:29:00,63.2,60.5,29.86,ENE,63,0.0,0.0,91,0.00,,---,0.00,VWS V14.01,2013-09-27 05:29:00,
2013-09-27 00:30:00,63.2,60.5,29.86,ENE,63,0.0,0.0,91,0.00,,,0.00,Wunderground v.1.15,2013-09-27 05:30:00,
2013-09-27 00:34:00,63.2,60.5,29.86,ENE,63,0.0,0.0,91,0.00,,---,0.00,VWS V14.01,2013-09-27 05:34:00,
2013-09-27 00:35:00,63.1,60.4,29.86,ENE,63,0.0,0.0,91,0.00,,,0.00,Wunderground v.1.15,2013-09-27 05:35:00,
2013-09-27 00:39:00,63.1,60.4,29.86,ENE,63,0.0,0.0,91,0.00,,---,0.00,VWS V14.01,2013-09-27 05:39:00,
2013-09-27 00:40:00,63.1,60.4,29.86,ENE,63,0.0,0.0,91,0.00,,,0.00,Wunderground v.1.15,2013-09-27 05:40:00,
2013-09-27 00:44:00,63.1,60.4,29.86,ENE,63,0.0,0.0,91,0.00,,---,0.00,VWS V14.01,2013-09-27 05:44:00,
2013-09-27 00:45:00,63.1,60.4,29.86,ENE,63,0.0,0.0,91,0.00,,,0.00,Wunderground v.1.15,2013-09-27 05:45:00,
2013-09-27 00:49:00,62.9,60.2,29.86,ENE,63,0.0,0.0,91,0.00,,---,0.00,VWS V14.01,2013-09-27 05:49:00,
2013-09-27 00:50:00,62.9,60.5,29.86,ENE,63,0.0,0.0,92,0.00,,,0.00,Wunderground v.1.15,2013-09-27 05:50:00,
2013-09-27 00:54:00,62.9,60.5,29.86,ENE,63,0.0,0.0,92,0.00,,---,0.00,VWS V14.01,2013-09-27 05:54:00,
2013-09-27 00:55:00,62.9,60.5,29.86,ENE,63,0.0,0.0,92,0.00,,,0.00,Wunderground v.1.15,2013-09-27 05:55:00,
2013-09-27 00:59:00,62.7,60.3,29.86,ENE,63,0.0,0.0,92,0.00,,---,0.00,VWS V14.01,2013-09-27 05:59:00,
2013-09-27 01:00:00,62.7,60.3,29.86,ENE,63,0.0,0.0,92,0.00,,,0.00,Wunderground v.1.15,2013-09-27 06:00:00,
2013-09-27 01:04:00,62.4,60.0,29.86,ENE,63,0.0,0.0,92,0.00,,---,0.00,VWS V14.01,2013-09-27 06:04:00,
2013-09-27 01:05:00,62.4,60.0,29.86,ENE,63,0.0,0.0,92,0.00,,,0.00,Wunderground v.1.15,2013-09-27 06:05:00,
2013-09-27 01:09:00,62.3,60.0,29.86,ENE,63,0.0,1.0,92,0.00,,---,0.00,VWS V14.01,2013-09-27 06:09:00,
2013-09-27 01:10:00,62.3,59.9,29.86,ENE,63,0.0,0.0,92,0.00,,,0.00,Wunderground v.1.15,2013-09-27 06:10:00,
2013-09-27 01:14:00,62.1,59.8,29.87,ENE,63,0.0,0.0,92,0.00,,---,0.00,VWS V14.01,2013-09-27 06:14:00,
2013-09-27 01:15:00,62.1,59.7,29.87,ENE,63,0.0,0.0,92,0.00,,,0.00,Wunderground v.1.15,2013-09-27 06:15:00,
2013-09-27 01:20:00,62.0,59.6,29.87,ENE,63,0.0,0.0,92,0.00,,,0.00,Wunderground v.1.15,2013-09-27 06:20:00,
2013-09-27 01:25:00,62.0,59.6,29.87,ENE,63,0.0,0.0,92,0.00,,,0.00,Wunderground v.1.15,2013-09-27 06:25:00,
2013-09-27 01:30:00,61.8,59.5,29.87,ENE,63,0.0,0.0,92,0.00,,,0.00,Wunderground v.1.15,2013-09-27 06:30:00,
2013-09-27 01:32:00,61.6,59.3,29.87,ENE,63,0.0,0.0,92,0.00,,---,0.00,VWS V14.01,2013-09-27 06:32:00,
2013-09-27 01:35:00,61.6,59.3,29.87,ENE,63,0.0,0.0,92,0.00,,,0.00,Wunderground v.1.15,2013-09-27 06:35:00,
2013-09-27 01:38:00,61.5,59.5,29.87,ENE,63,0.0,0.0,93,0.00,,---,0.00,VWS V14.01,2013-09-27 06:38:00,
2013-09-27 01:43:00,61.3,59.0,29.87,ENE,63,0.0,0.0,92,0.00,,---,0.00,VWS V14.01,2013-09-27 06:43:00,
2013-09-27 01:45:00,61.3,59.0,29.87,ENE,63,0.0,0.0,92,0.00,,,0.00,Wunderground v.1.15,2013-09-27 06:45:00,
2013-09-27 01:48:00,61.2,58.9,29.87,ENE,63,0.0,0.0,92,0.00,,---,0.00,VWS V14.01,2013-09-27 06:48:00,
2013-09-27 01:50:00,61.2,58.9,29.87,ENE,63,0.0,0.0,92,0.00,,,0.00,Wunderground v.1.15,2013-09-27 06:50:00,
2013-09-27 01:53:00,61.2,58.9,29.87,ENE,63,0.0,0.0,92,0.00,,---,0.00,VWS V14.01,2013-09-27 06:53:00,
2013-09-27 01:55:00,61.2,58.9,29.87,ENE,63,0.0,0.0,92,0.00,,,0.00,Wunderground v.1.15,2013-09-27 06:55:00,
2013-09-27 01:58:00,61.2,58.9,29.87,ENE,63,0.0,0.0,92,0.00,,---,0.00,VWS V14.01,2013-09-27 06:58:00,
2013-09-27 02:03:00,61.3,59.6,29.87,ENE,63,0.0,0.0,94,0.00,,---,0.00,VWS V14.01,2013-09-27 07:03:00,
2013-09-27 02:05:00,61.3,59.6,29.87,ENE,63,0.0,0.0,94,0.00,,,0.00,Wunderground v.1.15,2013-09-27 07:05:00,
2013-09-27 02:08:00,61.3,59.6,29.87,ENE,63,0.0,0.0,94,0.00,,---,0.00,VWS V14.01,2013-09-27 07:08:00,
2013-09-27 02:10:00,61.3,59.6,29.87,ENE,63,0.0,0.0,94,0.00,,,0.00,Wunderground v.1.15,2013-09-27 07:10:00,
2013-09-27 02:13:00,61.5,59.5,29.87,ENE,63,0.0,0.0,93,0.00,,---,0.00,VWS V14.01,2013-09-27 07:13:00,
2013-09-27 02:15:00,61.3,59.3,29.87,ENE,63,0.0,0.0,93,0.00,,,0.00,Wunderground v.1.15,2013-09-27 07:15:00,
2013-09-27 02:18:00,61.3,59.3,29.87,ENE,63,0.0,0.0,93,0.00,,---,0.00,VWS V14.01,2013-09-27 07:18:00,
2013-09-27 02:20:00,61.2,59.2,29.87,ENE,63,0.0,0.0,93,0.00,,,0.00,Wunderground v.1.15,2013-09-27 07:20:00,
2013-09-27 02:23:00,61.2,59.2,29.87,ENE,63,0.0,0.0,93,0.00,,---,0.00,VWS V14.01,2013-09-27 07:23:00,
2013-09-27 02:25:00,61.0,59.0,29.87,ENE,63,0.0,0.0,93,0.00,,,0.00,Wunderground v.1.15,2013-09-27 07:25:00,
2013-09-27 02:29:00,61.0,59.0,29.87,ENE,63,0.0,0.0,93,0.00,,---,0.00,VWS V14.01,2013-09-27 07:29:00,
2013-09-27 02:30:00,60.9,58.9,29.87,ENE,63,0.0,0.0,93,0.00,,,0.00,Wunderground v.1.15,2013-09-27 07:30:00,
2013-09-27 02:34:00,60.9,58.9,29.87,ENE,63,0.0,0.0,93,0.00,,---,0.00,VWS V14.01,2013-09-27 07:34:00,
2013-09-27 02:35:00,60.9,58.9,29.87,ENE,63,0.0,0.0,93,0.00,,,0.00,Wunderground v.1.15,2013-09-27 07:35:00,
2013-09-27 02:39:00,60.7,58.7,29.88,ENE,63,0.0,0.0,93,0.00,,---,0.00,VWS V14.01,2013-09-27 07:39:00,
2013-09-27 02:40:00,60.7,58.7,29.88,ENE,63,0.0,0.0,93,0.00,,,0.00,Wunderground v.1.15,2013-09-27 07:40:00,
2013-09-27 02:44:00,60.5,58.5,29.88,ENE,63,0.0,0.0,93,0.00,,---,0.00,VWS V14.01,2013-09-27 07:44:00,
2013-09-27 02:45:00,60.5,58.5,29.88,ENE,63,0.0,0.0,93,0.00,,,0.00,Wunderground v.1.15,2013-09-27 07:45:00,
2013-09-27 02:49:00,60.5,58.8,29.88,ENE,63,0.0,0.0,94,0.00,,---,0.00,VWS V14.01,2013-09-27 07:49:00,
2013-09-27 02:50:00,60.5,58.5,29.88,ENE,63,0.0,0.0,93,0.00,,,0.00,Wunderground v.1.15,2013-09-27 07:50:00,
2013-09-27 02:54:00,60.5,58.8,29.88,ENE,63,0.0,0.0,94,0.00,,---,0.00,VWS V14.01,2013-09-27 07:54:00,
2013-09-27 02:55:00,60.5,58.8,29.88,ENE,63,0.0,0.0,94,0.00,,,0.00,Wunderground v.1.15,2013-09-27 07:55:00,
2013-09-27 02:59:00,60.4,58.7,29.88,ENE,63,0.0,0.0,94,0.00,,---,0.00,VWS V14.01,2013-09-27 07:59:00,
2013-09-27 03:04:00,60.4,58.7,29.88,ENE,63,0.0,0.0,94,0.00,,---,0.00,VWS V14.01,2013-09-27 08:04:00,
2013-09-27 03:05:00,60.4,58.7,29.88,ENE,63,0.0,0.0,94,0.00,,,0.00,Wunderground v.1.15,2013-09-27 08:05:00,
2013-09-27 03:09:00,60.4,58.7,29.88,ENE,63,0.0,0.0,94,0.00,,---,0.00,VWS V14.01,2013-09-27 08:09:00,
2013-09-27 03:10:00,60.4,58.7,29.88,ENE,63,0.0,0.0,94,0.00,,,0.00,Wunderground v.1.15,2013-09-27 08:10:00,
2013-09-27 03:14:00,60.4,58.7,29.88,ENE,63,0.0,0.0,94,0.00,,---,0.00,VWS V14.01,2013-09-27 08:14:00,
2013-09-27 03:15:00,60.4,58.7,29.88,ENE,63,0.0,0.0,94,0.00,,,0.00,Wunderground v.1.15,2013-09-27 08:15:00,
2013-09-27 03:19:00,60.4,58.7,29.88,ENE,63,0.0,0.0,94,0.00,,---,0.00,VWS V14.01,2013-09-27 08:19:00,
2013-09-27 03:24:00,60.4,58.7,29.89,ENE,63,0.0,0.0,94,0.00,,---,0.00,VWS V14.01,2013-09-27 08:24:00,
2013-09-27 03:25:00,60.4,58.7,29.88,ENE,63,0.0,0.0,94,0.00,,,0.00,Wunderground v.1.15,2013-09-27 08:25:00,
2013-09-27 03:30:00,60.2,58.5,29.89,ENE,63,0.0,0.0,94,0.00,,,0.00,Wunderground v.1.15,2013-09-27 08:30:00,
2013-09-27 03:35:00,60.1,58.4,29.88,ENE,63,0.0,0.0,94,0.00,,,0.00,Wunderground v.1.15,2013-09-27 08:35:00,
2013-09-27 03:40:00,60.1,58.7,29.89,ENE,63,0.0,0.0,95,0.00,,,0.00,Wunderground v.1.15,2013-09-27 08:40:00,
2013-09-27 03:45:00,60.2,58.8,29.88,ENE,63,0.0,0.0,95,0.00,,,0.00,Wunderground v.1.15,2013-09-27 08:45:00,
2013-09-27 03:50:00,60.4,59.0,29.88,ENE,63,0.0,0.0,95,0.00,,,0.00,Wunderground v.1.15,2013-09-27 08:50:00,
2013-09-27 03:55:00,60.2,58.5,29.88,ENE,63,0.0,0.0,94,0.00,,,0.00,Wunderground v.1.15,2013-09-27 08:55:00,
2013-09-27 03:56:00,60.2,58.5,29.88,ENE,63,0.0,0.0,94,0.00,,---,0.00,VWS V14.01,2013-09-27 08:56:00,
2013-09-27 04:00:00,59.9,58.2,29.88,ENE,63,0.0,0.0,94,0.00,,,0.00,Wunderground v.1.15,2013-09-27 09:00:00,
2013-09-27 04:01:00,59.9,58.2,29.88,ENE,63,0.0,0.0,94,0.00,,---,0.00,VWS V14.01,2013-09-27 09:01:00,
2013-09-27 04:05:00,59.8,58.1,29.88,ENE,63,0.0,0.0,94,0.00,,,0.00,Wunderground v.1.15,2013-09-27 09:05:00,
2013-09-27 04:06:00,59.8,58.1,29.88,ENE,63,0.0,0.0,94,0.00,,---,0.00,VWS V14.01,2013-09-27 09:06:00,
2013-09-27 04:10:00,59.5,57.8,29.89,ENE,63,0.0,0.0,94,0.00,,,0.00,Wunderground v.1.15,2013-09-27 09:10:00,
2013-09-27 04:12:00,59.5,57.8,29.89,ENE,63,0.0,0.0,94,0.00,,---,0.00,VWS V14.01,2013-09-27 09:12:00,
2013-09-27 04:15:00,59.3,57.6,29.89,ENE,63,0.0,0.0,94,0.00,,,0.00,Wunderground v.1.15,2013-09-27 09:15:00,
2013-09-27 04:17:00,59.3,57.6,29.89,ENE,63,0.0,0.0,94,0.00,,---,0.00,VWS V14.01,2013-09-27 09:17:00,
2013-09-27 04:20:00,59.3,57.9,29.89,ENE,63,0.0,0.0,95,0.00,,,0.00,Wunderground v.1.15,2013-09-27 09:20:00,
2013-09-27 04:22:00,59.3,57.9,29.89,ENE,63,0.0,0.0,95,0.00,,---,0.00,VWS V14.01,2013-09-27 09:22:00,
2013-09-27 04:25:00,59.3,57.9,29.89,ENE,63,0.0,0.0,95,0.00,,,0.00,Wunderground v.1.15,2013-09-27 09:25:00,
2013-09-27 04:27:00,59.3,57.9,29.89,ENE,63,0.0,0.0,95,0.00,,---,0.00,VWS V14.01,2013-09-27 09:27:00,
2013-09-27 04:30:00,59.2,57.8,29.89,ENE,63,0.0,0.0,95,0.00,,,0.00,Wunderground v.1.15,2013-09-27 09:30:00,
2013-09-27 04:32:00,59.2,57.8,29.89,ENE,63,0.0,0.0,95,0.00,,---,0.00,VWS V14.01,2013-09-27 09:32:00,
2013-09-27 04:35:00,59.2,57.8,29.89,ENE,63,0.0,0.0,95,0.00,,,0.00,Wunderground v.1.15,2013-09-27 09:35:00,
2013-09-27 04:37:00,59.2,57.8,29.89,ENE,63,0.0,0.0,95,0.00,,---,0.00,VWS V14.01,2013-09-27 09:37:00,
2013-09-27 04:40:00,59.2,57.8,29.89,ENE,63,0.0,0.0,95,0.00,,,0.00,Wunderground v.1.15,2013-09-27 09:40:00,
2013-09-27 04:42:00,59.2,57.8,29.89,ENE,63,0.0,0.0,95,0.00,,---,0.00,VWS V14.01,2013-09-27 09:42:00,
2013-09-27 04:45:00,59.2,57.8,29.89,ENE,63,0.0,0.0,95,0.00,,,0.00,Wunderground v.1.15,2013-09-27 09:45:00,
2013-09-27 04:47:00,59.2,57.8,29.89,ENE,63,0.0,0.0,95,0.00,,---,0.00,VWS V14.01,2013-09-27 09:47:00,
2013-09-27 04:50:00,59.2,57.8,29.89,ENE,63,0.0,0.0,95,0.00,,,0.00,Wunderground v.1.15,2013-09-27 09:50:00,
2013-09-27 04:53:00,59.2,57.8,29.89,ENE,63,0.0,0.0,95,0.00,,---,0.00,VWS V14.01,2013-09-27 09:53:00,
2013-09-27 04:55:00,59.2,57.8,29.89,ENE,63,0.0,0.0,95,0.00,,,0.00,Wunderground v.1.15,2013-09-27 09:55:00,
2013-09-27 04:58:00,59.0,57.6,29.89,ENE,63,0.0,0.0,95,0.00,,---,0.00,VWS V14.01,2013-09-27 09:58:00,
2013-09-27 05:00:00,59.0,57.6,29.89,ENE,63,0.0,0.0,95,0.00,,,0.00,Wunderground v.1.15,2013-09-27 10:00:00,
2013-09-27 05:03:00,59.0,57.6,29.89,ENE,63,0.0,0.0,95,0.00,,---,0.00,VWS V14.01,2013-09-27 10:03:00,
2013-09-27 05:05:00,59.0,57.6,29.89,ENE,63,0.0,0.0,95,0.00,,,0.00,Wunderground v.1.15,2013-09-27 10:05:00,
2013-09-27 05:08:00,58.9,57.5,29.89,ENE,63,0.0,0.0,95,0.00,,---,0.00,VWS V14.01,2013-09-27 10:08:00,
2013-09-27 05:10:00,58.9,57.5,29.89,ENE,63,0.0,0.0,95,0.00,,,0.00,Wunderground v.1.15,2013-09-27 10:10:00,
2013-09-27 05:14:00,58.9,57.5,29.89,ENE,63,0.0,0.0,95,0.00,,---,0.00,VWS V14.01,2013-09-27 10:14:00,
2013-09-27 05:15:00,58.9,57.5,29.89,ENE,63,0.0,0.0,95,0.00,,,0.00,Wunderground v.1.15,2013-09-27 10:15:00,
2013-09-27 05:19:00,58.7,57.3,29.90,ENE,63,0.0,0.0,95,0.00,,---,0.00,VWS V14.01,2013-09-27 10:19:00,
2013-09-27 05:20:00,58.7,57.3,29.90,ENE,63,0.0,0.0,95,0.00,,,0.00,Wunderground v.1.15,2013-09-27 10:20:00,
2013-09-27 05:24:00,58.7,57.3,29.90,ENE,63,0.0,0.0,95,0.00,,---,0.00,VWS V14.01,2013-09-27 10:24:00,
2013-09-27 05:25:00,58.7,57.3,29.90,ENE,63,0.0,0.0,95,0.00,,,0.00,Wunderground v.1.15,2013-09-27 10:25:00,
2013-09-27 05:29:00,58.6,57.2,29.90,ENE,63,0.0,0.0,95,0.00,,---,0.00,VWS V14.01,2013-09-27 10:29:00,
2013-09-27 05:30:00,58.6,57.2,29.90,ENE,63,0.0,0.0,95,0.00,,,0.00,Wunderground v.1.15,2013-09-27 10:30:00,
2013-09-27 05:34:00,58.4,57.0,29.90,ENE,63,0.0,0.0,95,0.00,,---,0.00,VWS V14.01,2013-09-27 10:34:00,
2013-09-27 05:35:00,58.4,57.0,29.90,ENE,63,0.0,0.0,95,0.00,,,0.00,Wunderground v.1.15,2013-09-27 10:35:00,
2013-09-27 05:39:00,58.3,56.9,29.90,ENE,63,0.0,0.0,95,0.00,,---,0.00,VWS V14.01,2013-09-27 10:39:00,
2013-09-27 05:40:00,58.3,56.9,29.90,ENE,63,0.0,0.0,95,0.00,,,0.00,Wunderground v.1.15,2013-09-27 10:40:00,
2013-09-27 05:45:00,58.3,56.9,29.90,ENE,63,0.0,0.0,95,0.00,,,0.00,Wunderground v.1.15,2013-09-27 10:45:00,
2013-09-27 05:50:00,58.1,56.7,29.90,ENE,63,0.0,0.0,95,0.00,,,0.00,Wunderground v.1.15,2013-09-27 10:50:00,
2013-09-27 05:55:00,58.0,56.6,29.90,ENE,63,0.0,0.0,95,0.00,,---,0.00,VWS V14.01,2013-09-27 10:55:00,
2013-09-27 06:00:00,58.3,57.2,29.90,ENE,63,0.0,1.0,96,0.00,,,0.00,Wunderground v.1.15,2013-09-27 11:00:00,
2013-09-27 06:05:00,59.2,58.1,29.91,NNE,20,2.0,2.0,96,0.00,,---,0.00,VWS V14.01,2013-09-27 11:05:00,
2013-09-27 06:10:00,60.1,59.0,29.91,NE,35,0.0,0.0,96,0.00,,---,0.00,VWS V14.01,2013-09-27 11:10:00,
2013-09-27 06:15:00,60.9,60.0,29.91,ENE,66,1.0,5.0,97,0.00,,,0.00,Wunderground v.1.15,2013-09-27 11:15:00,
2013-09-27 06:20:00,61.3,60.2,29.91,ENE,66,1.0,1.0,96,0.00,,,0.00,Wunderground v.1.15,2013-09-27 11:20:00,
2013-09-27 06:25:00,61.0,59.9,29.91,ENE,66,0.0,1.0,96,0.00,,,0.00,Wunderground v.1.15,2013-09-27 11:25:00,
2013-09-27 06:30:00,61.0,59.9,29.91,ENE,66,0.0,0.0,96,0.00,,---,0.00,VWS V14.01,2013-09-27 11:30:00,
2013-09-27 06:35:00,60.7,59.3,29.91,ENE,66,0.0,0.0,95,0.00,,,0.00,Wunderground v.1.15,2013-09-27 11:35:00,
2013-09-27 06:36:00,60.5,59.1,29.91,ENE,66,0.0,0.0,95,0.00,,---,0.00,VWS V14.01,2013-09-27 11:36:00,
2013-09-27 06:40:00,60.2,58.8,29.91,ENE,66,0.0,0.0,95,0.00,,,0.00,Wunderground v.1.15,2013-09-27 11:40:00,
2013-09-27 06:41:00,60.2,58.8,29.91,ENE,66,0.0,0.0,95,0.00,,---,0.00,VWS V14.01,2013-09-27 11:41:00,
2013-09-27 06:45:00,59.8,58.4,29.91,ENE,66,0.0,0.0,95,0.00,,,0.00,Wunderground v.1.15,2013-09-27 11:45:00,
2013-09-27 06:46:00,59.8,58.4,29.91,ENE,66,0.0,0.0,95,0.00,,---,0.00,VWS V14.01,2013-09-27 11:46:00,
2013-09-27 06:50:00,59.6,58.2,29.92,ENE,66,0.0,0.0,95,0.00,,,0.00,Wunderground v.1.15,2013-09-27 11:50:00,
2013-09-27 06:51:00,59.6,58.2,29.91,ENE,66,0.0,0.0,95,0.00,,---,0.00,VWS V14.01,2013-09-27 11:51:00,
2013-09-27 06:55:00,59.5,58.1,29.92,ENE,66,0.0,0.0,95,0.00,,,0.00,Wunderground v.1.15,2013-09-27 11:55:00,
2013-09-27 06:56:00,59.5,58.1,29.92,ENE,66,0.0,0.0,95,0.00,,---,0.00,VWS V14.01,2013-09-27 11:56:00,
2013-09-27 07:00:00,59.5,58.1,29.92,ENE,66,0.0,0.0,95,0.00,,,0.00,Wunderground v.1.15,2013-09-27 12:00:00,
2013-09-27 07:01:00,59.5,58.1,29.92,ENE,66,0.0,0.0,95,0.00,,---,0.00,VWS V14.01,2013-09-27 12:01:00,
2013-09-27 07:05:00,59.3,58.2,29.93,ENE,66,0.0,1.0,96,0.00,,,0.00,Wunderground v.1.15,2013-09-27 12:05:00,
2013-09-27 07:06:00,59.3,58.2,29.93,ENE,66,0.0,0.0,96,0.00,,---,0.00,VWS V14.01,2013-09-27 12:06:00,
2013-09-27 07:10:00,59.3,58.2,29.93,ENE,66,0.0,1.0,96,0.00,,,0.00,Wunderground v.1.15,2013-09-27 12:10:00,
2013-09-27 07:11:00,59.3,58.2,29.93,ENE,66,0.0,0.0,96,0.00,,---,0.00,VWS V14.01,2013-09-27 12:11:00,
2013-09-27 07:15:00,59.2,58.1,29.93,ENE,66,0.0,1.0,96,0.00,,,0.00,Wunderground v.1.15,2013-09-27 12:15:00,
2013-09-27 07:16:00,59.2,58.1,29.93,ENE,66,0.0,0.0,96,0.00,,---,0.00,VWS V14.01,2013-09-27 12:16:00,
2013-09-27 07:20:00,59.2,58.1,29.93,ENE,66,0.0,1.0,96,0.00,,,0.00,Wunderground v.1.15,2013-09-27 12:20:00,
2013-09-27 07:21:00,59.2,58.1,29.93,ENE,66,0.0,0.0,96,0.00,,---,0.00,VWS V14.01,2013-09-27 12:21:00,
2013-09-27 07:25:00,59.0,57.9,29.93,ENE,66,0.0,1.0,96,0.00,,,0.00,Wunderground v.1.15,2013-09-27 12:25:00,
2013-09-27 07:26:00,59.0,57.9,29.93,ENE,66,0.0,0.0,96,0.00,,---,0.00,VWS V14.01,2013-09-27 12:26:00,
2013-09-27 07:30:00,59.5,58.4,29.93,ENE,66,0.0,1.0,96,0.00,,,0.00,Wunderground v.1.15,2013-09-27 12:30:00,
2013-09-27 07:31:00,59.8,58.7,29.93,ENE,66,0.0,1.0,96,0.00,,---,0.00,VWS V14.01,2013-09-27 12:31:00,
2013-09-27 07:35:00,60.5,59.6,29.93,ENE,59,0.0,3.0,97,0.00,,,0.00,Wunderground v.1.15,2013-09-27 12:35:00,
2013-09-27 07:37:00,60.9,60.0,29.93,ENE,59,0.0,3.0,97,0.00,,---,0.00,VWS V14.01,2013-09-27 12:37:00,
2013-09-27 07:40:00,61.0,60.1,29.93,ENE,59,1.0,1.0,97,0.00,,,0.00,Wunderground v.1.15,2013-09-27 12:40:00,
2013-09-27 07:42:00,61.2,60.3,29.93,ENE,59,0.0,0.0,97,0.00,,---,0.00,VWS V14.01,2013-09-27 12:42:00,
2013-09-27 07:45:00,61.5,60.3,29.93,ENE,59,0.0,1.0,96,0.00,,,0.00,Wunderground v.1.15,2013-09-27 12:45:00,
2013-09-27 07:47:00,61.5,60.3,29.93,ENE,59,0.0,1.0,96,0.00,,---,0.00,VWS V14.01,2013-09-27 12:47:00,
2013-09-27 07:52:00,62.0,60.8,29.93,ENE,59,0.0,0.0,96,0.00,,---,0.00,VWS V14.01,2013-09-27 12:52:00,
2013-09-27 07:55:00,62.1,60.9,29.93,ENE,59,0.0,1.0,96,0.00,,,0.00,Wunderground v.1.15,2013-09-27 12:55:00,
2013-09-27 07:58:00,62.1,61.0,29.93,ENE,59,0.0,2.0,96,0.00,,---,0.00,VWS V14.01,2013-09-27 12:58:00,
2013-09-27 08:00:00,62.3,61.1,29.93,ENE,59,0.0,1.0,96,0.00,,,0.00,Wunderground v.1.15,2013-09-27 13:00:00,
2013-09-27 08:03:00,62.4,61.2,29.94,ENE,59,0.0,1.0,96,0.00,,---,0.00,VWS V14.01,2013-09-27 13:03:00,
2013-09-27 08:05:00,62.6,61.4,29.94,ENE,57,0.0,1.0,96,0.00,,,0.00,Wunderground v.1.15,2013-09-27 13:05:00,
2013-09-27 08:08:00,62.9,61.8,29.94,NE,53,2.0,2.0,96,0.00,,---,0.00,VWS V14.01,2013-09-27 13:08:00,
2013-09-27 08:10:00,63.1,61.9,29.94,NE,53,0.0,1.0,96,0.00,,,0.00,Wunderground v.1.15,2013-09-27 13:10:00,
2013-09-27 08:13:00,63.4,62.2,29.94,NE,53,0.0,0.0,96,0.00,,---,0.00,VWS V14.01,2013-09-27 13:13:00,
2013-09-27 08:15:00,63.5,62.3,29.94,NE,53,0.0,1.0,96,0.00,,,0.00,Wunderground v.1.15,2013-09-27 13:15:00,
2013-09-27 08:18:00,63.9,62.7,29.94,NE,53,0.0,1.0,96,0.00,,---,0.00,VWS V14.01,2013-09-27 13:18:00,
2013-09-27 08:20:00,64.0,62.8,29.94,NE,53,0.0,1.0,96,0.00,,,0.00,Wunderground v.1.15,2013-09-27 13:20:00,
2013-09-27 08:24:00,64.3,63.1,29.94,ENE,60,3.0,3.0,96,0.00,,---,0.00,VWS V14.01,2013-09-27 13:24:00,
2013-09-27 08:25:00,64.5,63.3,29.94,NE,39,1.0,1.0,96,0.00,,,0.00,Wunderground v.1.15,2013-09-27 13:25:00,
2013-09-27 08:29:00,64.8,62.7,29.94,NE,40,3.0,6.0,93,0.00,,---,0.00,VWS V14.01,2013-09-27 13:29:00,
2013-09-27 08:30:00,65.0,62.9,29.94,NE,40,2.0,2.0,93,0.00,,,0.00,Wunderground v.1.15,2013-09-27 13:30:00,
2013-09-27 08:34:00,65.3,62.6,29.94,NE,36,2.0,3.0,91,0.00,,---,0.00,VWS V14.01,2013-09-27 13:34:00,
2013-09-27 08:35:00,65.3,62.6,29.94,NE,36,2.0,2.0,91,0.00,,,0.00,Wunderground v.1.15,2013-09-27 13:35:00,
2013-09-27 08:39:00,65.8,63.1,29.94,NE,39,2.0,5.0,91,0.00,,---,0.00,VWS V14.01,2013-09-27 13:39:00,
2013-09-27 08:40:00,65.8,63.1,29.94,NE,39,2.0,5.0,91,0.00,,,0.00,Wunderground v.1.15,2013-09-27 13:40:00,
2013-09-27 08:44:00,66.3,63.3,29.94,NE,46,1.0,5.0,90,0.00,,---,0.00,VWS V14.01,2013-09-27 13:44:00,
2013-09-27 08:45:00,66.4,63.4,29.94,NE,46,2.0,5.0,90,0.00,,,0.00,Wunderground v.1.15,2013-09-27 13:45:00,
2013-09-27 08:50:00,66.8,63.5,29.94,NNE,33,2.0,5.0,89,0.00,,---,0.00,VWS V14.01,2013-09-27 13:50:00,
2013-09-27 08:55:00,67.4,63.4,29.94,NNE,33,1.0,3.0,87,0.00,,---,0.00,VWS V14.01,2013-09-27 13:55:00,
2013-09-27 09:00:00,68.1,64.1,29.94,NNE,33,0.0,3.0,87,0.00,,---,0.00,VWS V14.01,2013-09-27 14:00:00,
2013-09-27 09:05:00,68.9,63.9,29.94,NE,49,3.0,5.0,84,0.00,,---,0.00,VWS V14.01,2013-09-27 14:05:00,
2013-09-27 09:10:00,69.6,64.2,29.94,NE,49,1.0,5.0,83,0.00,,---,0.00,VWS V14.01,2013-09-27 14:10:00,
2013-09-27 09:15:00,70.3,64.2,29.94,ENE,70,2.0,5.0,81,0.00,,---,0.00,VWS V14.01,2013-09-27 14:15:00,
2013-09-27 09:20:00,70.9,64.4,29.94,NNE,29,2.0,6.0,80,0.00,,,0.00,Wunderground v.1.15,2013-09-27 14:20:00,
2013-09-27 09:25:00,71.3,64.4,29.94,North,6,3.0,6.0,79,0.00,,,0.00,Wunderground v.1.15,2013-09-27 14:25:00,
2013-09-27 09:30:00,71.6,64.4,29.94,ENE,75,4.0,4.0,78,0.00,,,0.00,Wunderground v.1.15,2013-09-27 14:30:00,
2013-09-27 09:31:00,71.6,64.4,29.94,ENE,75,1.0,2.0,78,0.00,,---,0.00,VWS V14.01,2013-09-27 14:31:00,
2013-09-27 09:35:00,72.3,64.3,29.94,ENE,68,3.0,4.0,76,0.00,,,0.00,Wunderground v.1.15,2013-09-27 14:35:00,
2013-09-27 09:36:00,72.5,64.9,29.94,ENE,70,3.0,5.0,77,0.00,,---,0.00,VWS V14.01,2013-09-27 14:36:00,
2013-09-27 09:40:00,72.8,64.4,29.94,ENE,59,2.0,5.0,75,0.00,,,0.00,Wunderground v.1.15,2013-09-27 14:40:00,
2013-09-27 09:41:00,73.0,64.6,29.94,ENE,60,2.0,5.0,75,0.00,,---,0.00,VWS V14.01,2013-09-27 14:41:00,
2013-09-27 09:45:00,73.5,65.5,29.94,ENE,61,2.0,5.0,76,0.00,,,0.00,Wunderground v.1.15,2013-09-27 14:45:00,
2013-09-27 09:46:00,73.7,65.7,29.94,ENE,61,1.0,6.0,76,0.00,,---,0.00,VWS V14.01,2013-09-27 14:46:00,
2013-09-27 09:50:00,74.2,65.4,29.94,ENE,64,2.0,2.0,74,0.00,,,0.00,Wunderground v.1.15,2013-09-27 14:50:00,
2013-09-27 09:51:00,74.2,65.4,29.94,ENE,67,2.0,2.0,74,0.00,,---,0.00,VWS V14.01,2013-09-27 14:51:00,
2013-09-27 09:55:00,74.6,65.4,29.94,SE,138,2.0,2.0,73,0.00,,,0.00,Wunderground v.1.15,2013-09-27 14:55:00,
2013-09-27 09:57:00,74.6,65.0,29.94,ENE,63,6.0,7.0,72,0.00,,---,0.00,VWS V14.01,2013-09-27 14:57:00,
2013-09-27 10:00:00,74.7,64.7,29.94,NE,47,3.0,3.0,71,0.00,,,0.00,Wunderground v.1.15,2013-09-27 15:00:00,
2013-09-27 10:02:00,74.7,65.9,29.94,NE,46,0.0,3.0,74,0.00,,---,0.00,VWS V14.01,2013-09-27 15:02:00,
2013-09-27 10:05:00,75.3,65.2,29.94,ENE,71,3.0,7.0,71,0.00,,,0.00,Wunderground v.1.15,2013-09-27 15:05:00,
2013-09-27 10:07:00,75.3,64.8,29.94,ENE,77,2.0,7.0,70,0.00,,---,0.00,VWS V14.01,2013-09-27 15:07:00,
2013-09-27 10:10:00,75.6,65.5,29.94,ENE,78,2.0,2.0,71,0.00,,,0.00,Wunderground v.1.15,2013-09-27 15:10:00,
2013-09-27 10:12:00,76.0,65.9,29.94,NE,46,5.0,5.0,71,0.00,,---,0.00,VWS V14.01,2013-09-27 15:12:00,
2013-09-27 10:15:00,76.3,65.4,29.94,NE,39,2.0,3.0,69,0.00,,,0.00,Wunderground v.1.15,2013-09-27 15:15:00,
2013-09-27 10:17:00,76.5,65.6,29.94,NE,54,1.0,5.0,69,0.00,,---,0.00,VWS V14.01,2013-09-27 15:17:00,
2013-09-27 10:20:00,76.8,65.9,29.94,ENE,64,2.0,2.0,69,0.00,,,0.00,Wunderground v.1.15,2013-09-27 15:20:00,
2013-09-27 10:22:00,77.0,65.6,29.94,NNE,30,2.0,5.0,68,0.00,,---,0.00,VWS V14.01,2013-09-27 15:22:00,
2013-09-27 10:25:00,77.4,66.0,29.94,NNE,30,2.0,2.0,68,0.00,,,0.00,Wunderground v.1.15,2013-09-27 15:25:00,
2013-09-27 10:27:00,77.7,66.3,29.94,NE,44,1.0,5.0,68,0.00,,---,0.00,VWS V14.01,2013-09-27 15:27:00,
2013-09-27 10:30:00,77.9,66.5,29.94,NE,44,1.0,1.0,68,0.00,,,0.00,Wunderground v.1.15,2013-09-27 15:30:00,
2013-09-27 10:32:00,78.3,65.6,29.94,NE,49,5.0,6.0,65,0.00,,---,0.00,VWS V14.01,2013-09-27 15:32:00,
2013-09-27 10:35:00,78.5,66.2,29.94,ENE,61,2.0,3.0,66,0.00,,,0.00,Wunderground v.1.15,2013-09-27 15:35:00,
2013-09-27 10:37:00,78.5,66.2,29.94,South,180,1.0,6.0,66,0.00,,---,0.00,VWS V14.01,2013-09-27 15:37:00,
2013-09-27 10:40:00,78.6,66.7,29.94,SSE,166,3.0,3.0,67,0.00,,,0.00,Wunderground v.1.15,2013-09-27 15:40:00,
2013-09-27 10:42:00,78.8,66.9,29.94,SE,125,2.0,3.0,67,0.00,,---,0.00,VWS V14.01,2013-09-27 15:42:00,
2013-09-27 10:45:00,79.2,66.9,29.94,SE,125,2.0,3.0,66,0.00,,,0.00,Wunderground v.1.15,2013-09-27 15:45:00,
2013-09-27 10:47:00,79.6,66.8,29.94,NNE,25,5.0,6.0,65,0.00,,---,0.00,VWS V14.01,2013-09-27 15:47:00,
2013-09-27 10:50:00,79.8,65.6,29.94,ENE,68,2.0,2.0,62,0.00,,,0.00,Wunderground v.1.15,2013-09-27 15:50:00,
2013-09-27 10:54:00,79.8,67.0,29.94,ENE,68,2.0,5.0,65,0.00,,---,0.00,VWS V14.01,2013-09-27 15:54:00,
2013-09-27 10:55:00,79.9,67.1,29.94,ENE,68,2.0,2.0,65,0.00,,,0.00,Wunderground v.1.15,2013-09-27 15:55:00,
2013-09-27 10:59:00,79.9,65.7,29.94,East,87,2.0,8.0,62,0.00,,---,0.00,VWS V14.01,2013-09-27 15:59:00,
2013-09-27 11:00:00,79.9,65.7,29.94,East,83,3.0,5.0,62,0.00,,,0.00,Wunderground v.1.15,2013-09-27 16:00:00,
2013-09-27 11:04:00,80.5,66.3,29.94,SE,132,0.0,5.0,62,0.00,,---,0.00,VWS V14.01,2013-09-27 16:04:00,
2013-09-27 11:05:00,80.7,66.5,29.94,SE,129,2.0,5.0,62,0.00,,,0.00,Wunderground v.1.15,2013-09-27 16:05:00,
2013-09-27 11:09:00,81.1,67.8,29.94,NE,44,2.0,5.0,64,0.00,,---,0.00,VWS V14.01,2013-09-27 16:09:00,
2013-09-27 11:10:00,81.1,67.8,29.94,ENE,78,2.0,2.0,64,0.00,,,0.00,Wunderground v.1.15,2013-09-27 16:10:00,
2013-09-27 11:15:00,81.6,67.3,29.94,ENE,59,6.0,7.0,62,0.00,,---,0.00,VWS V14.01,2013-09-27 16:15:00,
2013-09-27 11:20:00,81.6,66.9,29.94,North,358,1.0,1.0,61,0.00,,---,0.00,VWS V14.01,2013-09-27 16:20:00,
2013-09-27 11:25:00,81.8,67.0,29.94,ENE,77,3.0,5.0,61,0.00,,,0.00,Wunderground v.1.15,2013-09-27 16:25:00,
2013-09-27 11:30:00,81.8,67.5,29.94,NE,36,3.0,3.0,62,0.00,,,0.00,Wunderground v.1.15,2013-09-27 16:30:00,
2013-09-27 11:35:00,82.2,66.0,29.93,NE,46,4.0,4.0,58,0.00,,,0.00,Wunderground v.1.15,2013-09-27 16:35:00,
2013-09-27 11:36:00,82.2,66.0,29.93,NE,47,2.0,7.0,58,0.00,,---,0.00,VWS V14.01,2013-09-27 16:36:00,
2013-09-27 11:40:00,82.4,66.6,29.93,East,99,3.0,3.0,59,0.00,,,0.00,Wunderground v.1.15,2013-09-27 16:40:00,
2013-09-27 11:41:00,82.4,66.2,29.93,East,88,1.0,2.0,58,0.00,,---,0.00,VWS V14.01,2013-09-27 16:41:00,
2013-09-27 11:45:00,82.8,66.0,29.93,ENE,66,3.0,3.0,57,0.00,,,0.00,Wunderground v.1.15,2013-09-27 16:45:00,
2013-09-27 11:46:00,83.0,65.7,29.93,ENE,59,1.0,6.0,56,0.00,,---,0.00,VWS V14.01,2013-09-27 16:46:00,
2013-09-27 11:50:00,83.2,66.4,29.93,ENE,70,3.0,6.0,57,0.00,,,0.00,Wunderground v.1.15,2013-09-27 16:50:00,
2013-09-27 11:51:00,83.2,66.4,29.93,ESE,102,6.0,7.0,57,0.00,,---,0.00,VWS V14.01,2013-09-27 16:51:00,
2013-09-27 11:55:00,83.2,65.9,29.93,NNE,16,3.0,6.0,56,0.00,,,0.00,Wunderground v.1.15,2013-09-27 16:55:00,
2013-09-27 11:56:00,83.4,67.1,29.93,SE,139,1.0,7.0,58,0.00,,---,0.00,VWS V14.01,2013-09-27 16:56:00,
2013-09-27 12:00:00,83.6,64.7,29.92,NE,49,3.0,3.0,53,0.00,,,0.00,Wunderground v.1.15,2013-09-27 17:00:00,
2013-09-27 12:02:00,83.8,64.9,29.92,NNE,20,6.0,7.0,53,0.00,,---,0.00,VWS V14.01,2013-09-27 17:02:00,
2013-09-27 12:05:00,84.0,66.1,29.92,ENE,64,3.0,7.0,55,0.00,,,0.00,Wunderground v.1.15,2013-09-27 17:05:00,
2013-09-27 12:07:00,84.1,65.1,29.92,SE,136,2.0,7.0,53,0.00,,---,0.00,VWS V14.01,2013-09-27 17:07:00,
2013-09-27 12:10:00,84.3,65.3,29.92,South,186,3.0,3.0,53,0.00,,,0.00,Wunderground v.1.15,2013-09-27 17:10:00,
2013-09-27 12:12:00,84.5,65.5,29.92,SSW,194,3.0,5.0,53,0.00,,---,0.00,VWS V14.01,2013-09-27 17:12:00,
2013-09-27 12:15:00,84.7,63.4,29.92,ENE,57,2.0,3.0,49,0.00,,,0.00,Wunderground v.1.15,2013-09-27 17:15:00,
2013-09-27 12:17:00,84.9,63.6,29.92,ENE,63,2.0,6.0,49,0.00,,---,0.00,VWS V14.01,2013-09-27 17:17:00,
2013-09-27 12:20:00,85.1,63.8,29.92,SSE,163,2.0,2.0,49,0.00,,,0.00,Wunderground v.1.15,2013-09-27 17:20:00,
2013-09-27 12:22:00,85.1,63.2,29.92,NE,46,5.0,7.0,48,0.00,,---,0.00,VWS V14.01,2013-09-27 17:22:00,
2013-09-27 12:26:00,85.1,65.5,29.92,NE,56,6.0,8.0,52,0.00,,---,0.00,VWS V14.01,2013-09-27 17:26:00,
2013-09-27 12:30:00,84.9,64.8,29.91,ENE,57,4.0,5.0,51,0.00,,,0.00,Wunderground v.1.15,2013-09-27 17:30:00,
2013-09-27 12:31:00,84.9,64.8,29.91,East,87,6.0,6.0,51,0.00,,---,0.00,VWS V14.01,2013-09-27 17:31:00,
2013-09-27 12:35:00,85.1,66.0,29.91,SE,139,4.0,5.0,53,0.00,,,0.00,Wunderground v.1.15,2013-09-27 17:35:00,
2013-09-27 12:36:00,85.3,65.7,29.91,SE,139,2.0,6.0,52,0.00,,---,0.00,VWS V14.01,2013-09-27 17:36:00,
2013-09-27 12:40:00,85.7,67.7,29.91,SE,126,3.0,3.0,55,0.00,,,0.00,Wunderground v.1.15,2013-09-27 17:40:00,
2013-09-27 12:42:00,85.7,67.7,29.91,SE,126,2.0,2.0,55,0.00,,---,0.00,VWS V14.01,2013-09-27 17:42:00,
2013-09-27 12:45:00,86.3,68.2,29.91,South,169,2.0,3.0,55,0.00,,,0.00,Wunderground v.1.15,2013-09-27 17:45:00,
2013-09-27 12:47:00,86.5,65.7,29.91,SE,139,8.0,8.0,50,0.00,,---,0.00,VWS V14.01,2013-09-27 17:47:00,
2013-09-27 12:50:00,86.5,65.1,29.90,SE,139,2.0,2.0,49,0.00,,,0.00,Wunderground v.1.15,2013-09-27 17:50:00,
2013-09-27 12:52:00,86.7,66.4,29.90,SE,136,2.0,2.0,51,0.00,,---,0.00,VWS V14.01,2013-09-27 17:52:00,
2013-09-27 12:55:00,87.0,67.2,29.90,SW,224,3.0,7.0,52,0.00,,,0.00,Wunderground v.1.15,2013-09-27 17:55:00,
2013-09-27 12:57:00,86.5,66.8,29.90,NNE,32,5.0,8.0,52,0.00,,---,0.00,VWS V14.01,2013-09-27 17:57:00,
2013-09-27 13:00:00,86.5,66.8,29.90,South,186,3.0,3.0,52,0.00,,,0.00,Wunderground v.1.15,2013-09-27 18:00:00,
2013-09-27 13:03:00,86.5,66.2,29.90,South,176,3.0,6.0,51,0.00,,---,0.00,VWS V14.01,2013-09-27 18:03:00,
2013-09-27 13:05:00,86.7,66.4,29.90,SE,145,3.0,8.0,51,0.00,,,0.00,Wunderground v.1.15,2013-09-27 18:05:00,
2013-09-27 13:08:00,87.2,68.0,29.90,South,188,1.0,6.0,53,0.00,,---,0.00,VWS V14.01,2013-09-27 18:08:00,
2013-09-27 13:10:00,87.4,68.2,29.90,SSE,159,3.0,3.0,53,0.00,,,0.00,Wunderground v.1.15,2013-09-27 18:10:00,
2013-09-27 13:13:00,87.6,66.1,29.90,South,188,2.0,5.0,49,0.00,,---,0.00,VWS V14.01,2013-09-27 18:13:00,
2013-09-27 13:15:00,87.6,65.5,29.90,South,169,2.0,8.0,48,0.00,,,0.00,Wunderground v.1.15,2013-09-27 18:15:00,
2013-09-27 13:18:00,87.6,67.8,29.90,NE,56,3.0,6.0,52,0.00,,---,0.00,VWS V14.01,2013-09-27 18:18:00,
2013-09-27 13:20:00,87.6,66.1,29.89,NE,35,3.0,8.0,49,0.00,,,0.00,Wunderground v.1.15,2013-09-27 18:20:00,
2013-09-27 13:23:00,87.0,65.6,29.89,WNW,303,1.0,7.0,49,0.00,,---,0.00,VWS V14.01,2013-09-27 18:23:00,
2013-09-27 13:25:00,87.0,67.8,29.89,ENE,66,3.0,8.0,53,0.00,,,0.00,Wunderground v.1.15,2013-09-27 18:25:00,
2013-09-27 13:28:00,87.2,65.1,29.89,ENE,64,2.0,7.0,48,0.00,,---,0.00,VWS V14.01,2013-09-27 18:28:00,
2013-09-27 13:30:00,87.2,65.1,29.89,SE,136,2.0,2.0,48,0.00,,,0.00,Wunderground v.1.15,2013-09-27 18:30:00,
2013-09-27 13:33:00,87.2,66.3,29.89,ENE,66,3.0,6.0,50,0.00,,---,0.00,VWS V14.01,2013-09-27 18:33:00,
2013-09-27 13:35:00,87.0,64.9,29.89,NE,42,2.0,8.0,48,0.00,,,0.00,Wunderground v.1.15,2013-09-27 18:35:00,
2013-09-27 13:38:00,87.2,67.4,29.89,SSW,197,3.0,6.0,52,0.00,,---,0.00,VWS V14.01,2013-09-27 18:38:00,
2013-09-27 13:40:00,87.2,65.1,29.89,South,179,3.0,8.0,48,0.00,,,0.00,Wunderground v.1.15,2013-09-27 18:40:00,
2013-09-27 13:44:00,87.6,66.1,29.89,SSE,160,3.0,11.0,49,0.00,,---,0.00,VWS V14.01,2013-09-27 18:44:00,
2013-09-27 13:45:00,87.6,66.1,29.89,SSW,203,4.0,8.0,49,0.00,,,0.00,Wunderground v.1.15,2013-09-27 18:45:00,
2013-09-27 13:49:00,88.0,66.5,29.89,SW,227,5.0,11.0,49,0.00,,---,0.00,VWS V14.01,2013-09-27 18:49:00,
2013-09-27 13:50:00,88.0,66.4,29.89,SW,224,4.0,4.0,49,0.00,,,0.00,Wunderground v.1.15,2013-09-27 18:50:00,
2013-09-27 13:54:00,87.6,66.1,29.89,SSW,194,2.0,7.0,49,0.00,,---,0.00,VWS V14.01,2013-09-27 18:54:00,
2013-09-27 13:55:00,87.6,66.1,29.89,SSW,194,3.0,8.0,49,0.00,,,0.00,Wunderground v.1.15,2013-09-27 18:55:00,
2013-09-27 14:00:00,86.7,64.7,29.88,ENE,64,6.0,7.0,48,0.00,,---,0.00,VWS V14.01,2013-09-27 19:00:00,
2013-09-27 14:05:00,85.9,65.1,29.88,ENE,74,1.0,7.0,50,0.00,,---,0.00,VWS V14.01,2013-09-27 19:05:00,
2013-09-27 14:10:00,85.3,64.0,29.88,ENE,60,2.0,2.0,49,0.00,,---,0.00,VWS V14.01,2013-09-27 19:10:00,
2013-09-27 14:15:00,85.3,64.0,29.88,ENE,70,2.0,6.0,49,0.00,,---,0.00,VWS V14.01,2013-09-27 19:15:00,
2013-09-27 14:20:00,85.9,66.8,29.87,NNE,33,3.0,8.0,53,0.00,,,0.00,Wunderground v.1.15,2013-09-27 19:20:00,
2013-09-27 14:25:00,85.7,62.5,29.87,ESE,122,3.0,8.0,46,0.00,,,0.00,Wunderground v.1.15,2013-09-27 19:25:00,
2013-09-27 14:26:00,85.7,63.8,29.87,North,5,5.0,10.0,48,0.00,,---,0.00,VWS V14.01,2013-09-27 19:26:00,
2013-09-27 14:30:00,86.1,64.1,29.87,NE,50,3.0,8.0,48,0.00,,,0.00,Wunderground v.1.15,2013-09-27 19:30:00,
2013-09-27 14:31:00,86.1,64.1,29.87,NE,50,3.0,3.0,48,0.00,,---,0.00,VWS V14.01,2013-09-27 19:31:00,
2013-09-27 14:35:00,87.0,63.7,29.87,SW,227,2.0,8.0,46,0.00,,,0.00,Wunderground v.1.15,2013-09-27 19:35:00,
2013-09-27 14:36:00,87.2,63.9,29.87,SSW,198,3.0,7.0,46,0.00,,---,0.00,VWS V14.01,2013-09-27 19:36:00,
2013-09-27 14:40:00,87.8,63.8,29.86,East,97,2.0,8.0,45,0.00,,,0.00,Wunderground v.1.15,2013-09-27 19:40:00,
2013-09-27 14:41:00,88.0,64.0,29.86,NE,53,1.0,6.0,45,0.00,,---,0.00,VWS V14.01,2013-09-27 19:41:00,
2013-09-27 14:46:00,88.6,65.8,29.86,NE,51,3.0,6.0,47,0.00,,---,0.00,VWS V14.01,2013-09-27 19:46:00,
2013-09-27 14:50:00,88.8,62.1,29.86,North,355,3.0,3.0,41,0.00,,,0.00,Wunderground v.1.15,2013-09-27 19:50:00,
2013-09-27 14:51:00,88.8,62.1,29.86,SW,219,5.0,5.0,41,0.00,,---,0.00,VWS V14.01,2013-09-27 19:51:00,
2013-09-27 14:55:00,88.8,62.1,29.86,SE,139,3.0,8.0,41,0.00,,,0.00,Wunderground v.1.15,2013-09-27 19:55:00,
2013-09-27 14:57:00,88.8,62.1,29.86,South,191,1.0,8.0,41,0.00,,---,0.00,VWS V14.01,2013-09-27 19:57:00,
2013-09-27 15:00:00,89.0,63.6,29.85,ENE,64,3.0,3.0,43,0.00,,,0.00,Wunderground v.1.15,2013-09-27 20:00:00,
2013-09-27 15:02:00,89.0,63.6,29.85,ENE,64,2.0,5.0,43,0.00,,---,0.00,VWS V14.01,2013-09-27 20:02:00,
2013-09-27 15:05:00,88.8,63.4,29.85,NNE,23,2.0,5.0,43,0.00,,,0.00,Wunderground v.1.15,2013-09-27 20:05:00,
2013-09-27 15:07:00,88.8,63.4,29.85,ENE,68,5.0,8.0,43,0.00,,---,0.00,VWS V14.01,2013-09-27 20:07:00,
2013-09-27 15:10:00,88.2,62.2,29.85,ENE,59,4.0,4.0,42,0.00,,,0.00,Wunderground v.1.15,2013-09-27 20:10:00,
2013-09-27 15:12:00,88.2,62.2,29.85,NE,39,5.0,5.0,42,0.00,,---,0.00,VWS V14.01,2013-09-27 20:12:00,
2013-09-27 15:15:00,88.2,63.5,29.85,NE,43,4.0,8.0,44,0.00,,,0.00,Wunderground v.1.15,2013-09-27 20:15:00,
2013-09-27 15:18:00,88.2,62.9,29.85,NNE,32,3.0,10.0,43,0.00,,---,0.00,VWS V14.01,2013-09-27 20:18:00,
2013-09-27 15:20:00,88.0,62.7,29.85,NE,50,3.0,3.0,43,0.00,,,0.00,Wunderground v.1.15,2013-09-27 20:20:00,
2013-09-27 15:24:00,88.0,62.7,29.85,NNE,30,2.0,8.0,43,0.00,,---,0.00,VWS V14.01,2013-09-27 20:24:00,
2013-09-27 15:25:00,88.0,62.7,29.84,SW,234,4.0,4.0,43,0.00,,,0.00,Wunderground v.1.15,2013-09-27 20:25:00,
2013-09-27 15:29:00,88.6,63.3,29.85,SSE,147,6.0,8.0,43,0.00,,---,0.00,VWS V14.01,2013-09-27 20:29:00,
2013-09-27 15:30:00,88.6,63.9,29.85,SSW,208,3.0,8.0,44,0.00,,,0.00,Wunderground v.1.15,2013-09-27 20:30:00,
2013-09-27 15:35:00,88.8,64.1,29.85,NE,50,10.0,11.0,44,0.00,,---,0.00,VWS V14.01,2013-09-27 20:35:00,
2013-09-27 15:40:00,88.6,63.3,29.84,South,179,3.0,11.0,43,0.00,,---,0.00,VWS V14.01,2013-09-27 20:40:00,
2013-09-27 15:45:00,89.0,63.0,29.84,NE,53,2.0,6.0,42,0.00,,---,0.00,VWS V14.01,2013-09-27 20:45:00,
2013-09-27 15:50:00,89.3,62.5,29.84,SW,232,2.0,2.0,41,0.00,,---,0.00,VWS V14.01,2013-09-27 20:50:00,
2013-09-27 15:55:00,89.3,61.1,29.84,ENE,73,2.0,8.0,39,0.00,,,0.00,Wunderground v.1.15,2013-09-27 20:55:00,
2013-09-27 16:00:00,88.8,62.7,29.84,SE,139,3.0,3.0,42,0.00,,,0.00,Wunderground v.1.15,2013-09-27 21:00:00,
2013-09-27 16:01:00,88.8,62.8,29.84,SE,139,1.0,3.0,42,0.00,,---,0.00,VWS V14.01,2013-09-27 21:01:00,
2013-09-27 16:05:00,88.4,63.1,29.84,NE,47,3.0,8.0,43,0.00,,,0.00,Wunderground v.1.15,2013-09-27 21:05:00,
2013-09-27 16:06:00,88.4,63.1,29.84,South,190,3.0,6.0,43,0.00,,---,0.00,VWS V14.01,2013-09-27 21:06:00,
2013-09-27 16:10:00,88.6,63.2,29.84,South,179,2.0,8.0,43,0.00,,,0.00,Wunderground v.1.15,2013-09-27 21:10:00,
2013-09-27 16:11:00,88.6,63.3,29.84,South,179,2.0,2.0,43,0.00,,---,0.00,VWS V14.01,2013-09-27 21:11:00,
2013-09-27 16:15:00,88.8,64.1,29.84,SE,139,3.0,8.0,44,0.00,,,0.00,Wunderground v.1.15,2013-09-27 21:15:00,
2013-09-27 16:16:00,88.8,64.1,29.84,South,180,2.0,7.0,44,0.00,,---,0.00,VWS V14.01,2013-09-27 21:16:00,
2013-09-27 16:20:00,88.8,64.7,29.85,South,180,2.0,8.0,45,0.00,,,0.00,Wunderground v.1.15,2013-09-27 21:20:00,
2013-09-27 16:21:00,88.8,62.1,29.84,South,179,1.0,2.0,41,0.00,,---,0.00,VWS V14.01,2013-09-27 21:21:00,
2013-09-27 16:25:00,88.8,62.7,29.85,South,187,2.0,8.0,42,0.00,,,0.00,Wunderground v.1.15,2013-09-27 21:25:00,
2013-09-27 16:26:00,88.6,63.3,29.85,SSE,167,3.0,6.0,43,0.00,,---,0.00,VWS V14.01,2013-09-27 21:26:00,
2013-09-27 16:30:00,88.2,62.2,29.85,East,83,2.0,8.0,42,0.00,,,0.00,Wunderground v.1.15,2013-09-27 21:30:00,
2013-09-27 16:31:00,88.0,62.7,29.85,North,359,2.0,3.0,43,0.00,,---,0.00,VWS V14.01,2013-09-27 21:31:00,
2013-09-27 16:35:00,87.6,64.9,29.85,SSW,203,2.0,8.0,47,0.00,,,0.00,Wunderground v.1.15,2013-09-27 21:35:00,
2013-09-27 16:36:00,87.6,65.5,29.84,West,275,1.0,3.0,48,0.00,,---,0.00,VWS V14.01,2013-09-27 21:36:00,
2013-09-27 16:40:00,87.6,64.3,29.84,ENE,75,2.0,2.0,46,0.00,,,0.00,Wunderground v.1.15,2013-09-27 21:40:00,
2013-09-27 16:41:00,87.6,62.4,29.84,ENE,73,2.0,5.0,43,0.00,,---,0.00,VWS V14.01,2013-09-27 21:41:00,
2013-09-27 16:45:00,87.2,62.6,29.84,NE,54,3.0,3.0,44,0.00,,,0.00,Wunderground v.1.15,2013-09-27 21:45:00,
2013-09-27 16:47:00,87.2,63.9,29.84,NE,54,1.0,8.0,46,0.00,,---,0.00,VWS V14.01,2013-09-27 21:47:00,
2013-09-27 16:50:00,87.4,64.1,29.84,NE,54,2.0,2.0,46,0.00,,,0.00,Wunderground v.1.15,2013-09-27 21:50:00,
2013-09-27 16:52:00,87.6,64.3,29.84,NE,54,1.0,2.0,46,0.00,,---,0.00,VWS V14.01,2013-09-27 21:52:00,
2013-09-27 16:55:00,88.0,64.6,29.84,NE,54,1.0,8.0,46,0.00,,,0.00,Wunderground v.1.15,2013-09-27 21:55:00,
2013-09-27 16:58:00,88.4,63.7,29.84,SSE,160,5.0,5.0,44,0.00,,---,0.00,VWS V14.01,2013-09-27 21:58:00,
2013-09-27 17:00:00,88.6,63.9,29.84,SE,132,1.0,8.0,44,0.00,,,0.00,Wunderground v.1.15,2013-09-27 22:00:00,
2013-09-27 17:03:00,88.6,63.9,29.84,SSE,153,2.0,3.0,44,0.00,,---,0.00,VWS V14.01,2013-09-27 22:03:00,
2013-09-27 17:08:00,88.4,65.0,29.84,South,183,1.0,3.0,46,0.00,,---,0.00,VWS V14.01,2013-09-27 22:08:00,
2013-09-27 17:10:00,88.2,64.8,29.84,South,183,2.0,2.0,46,0.00,,,0.00,Wunderground v.1.15,2013-09-27 22:10:00,
2013-09-27 17:13:00,87.8,65.1,29.84,South,183,0.0,2.0,47,0.00,,---,0.00,VWS V14.01,2013-09-27 22:13:00,
2013-09-27 17:15:00,87.4,64.7,29.84,East,87,1.0,8.0,47,0.00,,,0.00,Wunderground v.1.15,2013-09-27 22:15:00,
2013-09-27 17:18:00,87.0,64.3,29.84,East,85,1.0,2.0,47,0.00,,---,0.00,VWS V14.01,2013-09-27 22:18:00,
2013-09-27 17:20:00,87.0,64.3,29.84,East,85,1.0,1.0,47,0.00,,,0.00,Wunderground v.1.15,2013-09-27 22:20:00,
2013-09-27 17:23:00,86.7,64.1,29.84,East,88,0.0,1.0,47,0.00,,---,0.00,VWS V14.01,2013-09-27 22:23:00,
2013-09-27 17:25:00,86.5,64.5,29.84,ENE,74,1.0,8.0,48,0.00,,,0.00,Wunderground v.1.15,2013-09-27 22:25:00,
2013-09-27 17:28:00,86.3,64.3,29.84,ENE,74,1.0,3.0,48,0.00,,---,0.00,VWS V14.01,2013-09-27 22:28:00,
2013-09-27 17:30:00,86.1,63.5,29.84,ENE,73,1.0,8.0,47,0.00,,,0.00,Wunderground v.1.15,2013-09-27 22:30:00,
2013-09-27 17:33:00,85.9,63.3,29.84,ENE,71,2.0,3.0,47,0.00,,---,0.00,VWS V14.01,2013-09-27 22:33:00,
2013-09-27 17:35:00,85.5,63.6,29.84,ENE,71,2.0,8.0,48,0.00,,,0.00,Wunderground v.1.15,2013-09-27 22:35:00,
2013-09-27 17:38:00,85.3,63.4,29.84,NE,49,2.0,5.0,48,0.00,,---,0.00,VWS V14.01,2013-09-27 22:38:00,
2013-09-27 17:40:00,85.3,63.4,29.84,NE,50,2.0,2.0,48,0.00,,,0.00,Wunderground v.1.15,2013-09-27 22:40:00,
2013-09-27 17:43:00,85.1,63.2,29.84,NE,50,3.0,3.0,48,0.00,,---,0.00,VWS V14.01,2013-09-27 22:43:00,
2013-09-27 17:45:00,84.9,63.0,29.84,NE,47,2.0,8.0,48,0.00,,,0.00,Wunderground v.1.15,2013-09-27 22:45:00,
2013-09-27 17:48:00,84.7,63.5,29.84,NE,47,2.0,3.0,49,0.00,,---,0.00,VWS V14.01,2013-09-27 22:48:00,
2013-09-27 17:50:00,84.7,63.4,29.84,ENE,59,2.0,8.0,49,0.00,,,0.00,Wunderground v.1.15,2013-09-27 22:50:00,
2013-09-27 17:53:00,84.3,63.1,29.84,NE,56,5.0,6.0,49,0.00,,---,0.00,VWS V14.01,2013-09-27 22:53:00,
2013-09-27 17:55:00,84.3,63.1,29.84,NE,56,2.0,8.0,49,0.00,,,0.00,Wunderground v.1.15,2013-09-27 22:55:00,
2013-09-27 17:59:00,84.1,64.6,29.84,NE,56,0.0,6.0,52,0.00,,---,0.00,VWS V14.01,2013-09-27 22:59:00,
2013-09-27 18:00:00,84.1,64.6,29.84,NE,56,2.0,2.0,52,0.00,,,0.00,Wunderground v.1.15,2013-09-27 23:00:00,
2013-09-27 18:04:00,84.0,65.1,29.84,NE,56,2.0,3.0,53,0.00,,---,0.00,VWS V14.01,2013-09-27 23:04:00,
2013-09-27 18:05:00,84.0,63.9,29.84,NE,56,1.0,2.0,51,0.00,,,0.00,Wunderground v.1.15,2013-09-27 23:05:00,
2013-09-27 18:09:00,83.6,64.7,29.84,ENE,77,0.0,5.0,53,0.00,,---,0.00,VWS V14.01,2013-09-27 23:09:00,
2013-09-27 18:14:00,83.6,64.7,29.84,ENE,78,3.0,3.0,53,0.00,,---,0.00,VWS V14.01,2013-09-27 23:14:00,
2013-09-27 18:15:00,83.4,64.5,29.84,ENE,78,1.0,1.0,53,0.00,,,0.00,Wunderground v.1.15,2013-09-27 23:15:00,
2013-09-27 18:19:00,83.2,64.8,29.84,ENE,78,0.0,3.0,54,0.00,,---,0.00,VWS V14.01,2013-09-27 23:19:00,
2013-09-27 18:20:00,83.2,64.8,29.84,ENE,78,1.0,1.0,54,0.00,,,0.00,Wunderground v.1.15,2013-09-27 23:20:00,
2013-09-27 18:24:00,82.8,65.5,29.84,ENE,78,0.0,0.0,56,0.00,,---,0.00,VWS V14.01,2013-09-27 23:24:00,
2013-09-27 18:25:00,82.8,65.5,29.84,ENE,78,0.0,1.0,56,0.00,,,0.00,Wunderground v.1.15,2013-09-27 23:25:00,
2013-09-27 18:29:00,82.6,65.3,29.84,ENE,78,0.0,0.0,56,0.00,,---,0.00,VWS V14.01,2013-09-27 23:29:00,
2013-09-27 18:30:00,82.4,65.1,29.84,ENE,78,0.0,0.0,56,0.00,,,0.00,Wunderground v.1.15,2013-09-27 23:30:00,
2013-09-27 18:34:00,81.8,66.1,29.84,ENE,78,0.0,0.0,59,0.00,,---,0.00,VWS V14.01,2013-09-27 23:34:00,
2013-09-27 18:35:00,81.8,66.1,29.84,ENE,78,0.0,0.0,59,0.00,,,0.00,Wunderground v.1.15,2013-09-27 23:35:00,
2013-09-27 18:39:00,81.2,66.5,29.84,ENE,78,0.0,0.0,61,0.00,,---,0.00,VWS V14.01,2013-09-27 23:39:00,
2013-09-27 18:40:00,81.2,66.5,29.84,ENE,78,0.0,0.0,61,0.00,,,0.00,Wunderground v.1.15,2013-09-27 23:40:00,
2013-09-27 18:45:00,80.7,66.0,29.84,ENE,78,0.0,0.0,61,0.00,,---,0.00,VWS V14.01,2013-09-27 23:45:00,
2013-09-27 18:50:00,80.3,68.3,29.84,ENE,78,0.0,0.0,67,0.00,,---,0.00,VWS V14.01,2013-09-27 23:50:00,
2013-09-27 18:55:00,79.9,68.0,29.84,ENE,78,0.0,0.0,67,0.00,,,0.00,Wunderground v.1.15,2013-09-27 23:55:00,
2013-09-27 19:00:00,79.4,67.9,29.84,ENE,78,0.0,0.0,68,0.00,,,0.00,Wunderground v.1.15,2013-09-28 00:00:00,
2013-09-27 19:05:00,78.6,67.6,29.84,ENE,78,0.0,0.0,69,0.00,,---,0.00,VWS V14.01,2013-09-28 00:05:00,
2013-09-27 19:10:00,78.1,67.9,29.84,ENE,78,0.0,0.0,71,0.00,,---,0.00,VWS V14.01,2013-09-28 00:10:00,
2013-09-27 19:15:00,77.4,67.3,29.84,ENE,78,0.0,6.0,71,0.00,,,0.00,Wunderground v.1.15,2013-09-28 00:15:00,
2013-09-27 19:20:00,76.8,66.7,29.84,ENE,78,0.0,6.0,71,0.00,,,0.00,Wunderground v.1.15,2013-09-28 00:20:00,
2013-09-27 19:21:00,76.5,67.6,29.84,ENE,78,0.0,0.0,74,0.00,,---,0.00,VWS V14.01,2013-09-28 00:21:00,
2013-09-27 19:25:00,76.1,67.2,29.84,ENE,78,0.0,6.0,74,0.00,,,0.00,Wunderground v.1.15,2013-09-28 00:25:00,
2013-09-27 19:27:00,75.8,67.3,29.84,ENE,78,0.0,0.0,75,0.00,,---,0.00,VWS V14.01,2013-09-28 00:27:00,
2013-09-27 19:30:00,75.4,66.9,29.84,ENE,78,0.0,6.0,75,0.00,,,0.00,Wunderground v.1.15,2013-09-28 00:30:00,
2013-09-27 19:32:00,75.3,66.8,29.84,ENE,78,0.0,0.0,75,0.00,,---,0.00,VWS V14.01,2013-09-28 00:32:00,
2013-09-27 19:35:00,74.9,66.8,29.84,ENE,78,0.0,6.0,76,0.00,,,0.00,Wunderground v.1.15,2013-09-28 00:35:00,
2013-09-27 19:37:00,74.7,67.0,29.84,ENE,78,0.0,0.0,77,0.00,,---,0.00,VWS V14.01,2013-09-28 00:37:00,
2013-09-27 19:40:00,74.4,67.1,29.84,ENE,78,0.0,6.0,78,0.00,,,0.00,Wunderground v.1.15,2013-09-28 00:40:00,
2013-09-27 19:42:00,74.0,66.7,29.84,ENE,78,0.0,0.0,78,0.00,,---,0.00,VWS V14.01,2013-09-28 00:42:00,
2013-09-27 19:45:00,73.7,66.4,29.84,ENE,78,0.0,6.0,78,0.00,,,0.00,Wunderground v.1.15,2013-09-28 00:45:00,
2013-09-27 19:47:00,73.5,66.2,29.84,ENE,78,0.0,0.0,78,0.00,,---,0.00,VWS V14.01,2013-09-28 00:47:00,
2013-09-27 19:50:00,73.3,66.0,29.85,ENE,78,0.0,6.0,78,0.00,,,0.00,Wunderground v.1.15,2013-09-28 00:50:00,
2013-09-27 19:52:00,73.2,65.9,29.85,ENE,78,0.0,0.0,78,0.00,,---,0.00,VWS V14.01,2013-09-28 00:52:00,
2013-09-27 19:55:00,72.7,65.4,29.85,ENE,78,0.0,6.0,78,0.00,,,0.00,Wunderground v.1.15,2013-09-28 00:55:00,
2013-09-27 19:58:00,72.3,66.2,29.85,ENE,78,0.0,0.0,81,0.00,,---,0.00,VWS V14.01,2013-09-28 00:58:00,
2013-09-27 20:00:00,72.1,65.9,29.85,ENE,78,0.0,6.0,81,0.00,,,0.00,Wunderground v.1.15,2013-09-28 01:00:00,
2013-09-27 20:03:00,72.0,65.9,29.85,ENE,78,0.0,0.0,81,0.00,,---,0.00,VWS V14.01,2013-09-28 01:03:00,
2013-09-27 20:08:00,71.5,66.1,29.85,ENE,78,0.0,0.0,83,0.00,,---,0.00,VWS V14.01,2013-09-28 01:08:00,
2013-09-27 20:10:00,71.3,66.2,29.85,ENE,78,0.0,6.0,84,0.00,,,0.00,Wunderground v.1.15,2013-09-28 01:10:00,
2013-09-27 20:13:00,70.9,65.8,29.85,ENE,78,0.0,0.0,84,0.00,,---,0.00,VWS V14.01,2013-09-28 01:13:00,
2013-09-27 20:15:00,70.8,65.7,29.85,ENE,78,0.0,6.0,84,0.00,,,0.00,Wunderground v.1.15,2013-09-28 01:15:00,
2013-09-27 20:18:00,70.6,65.5,29.85,ENE,78,0.0,0.0,84,0.00,,---,0.00,VWS V14.01,2013-09-28 01:18:00,
2013-09-27 20:20:00,70.3,65.6,29.85,ENE,78,0.0,6.0,85,0.00,,,0.00,Wunderground v.1.15,2013-09-28 01:20:00,
2013-09-27 20:23:00,70.1,65.7,29.85,ENE,78,0.0,0.0,86,0.00,,---,0.00,VWS V14.01,2013-09-28 01:23:00,
2013-09-27 20:25:00,69.9,65.2,29.85,ENE,78,0.0,6.0,85,0.00,,,0.00,Wunderground v.1.15,2013-09-28 01:25:00,
2013-09-27 20:28:00,69.9,65.2,29.85,ENE,78,0.0,0.0,85,0.00,,---,0.00,VWS V14.01,2013-09-28 01:28:00,
2013-09-27 20:30:00,69.8,65.1,29.85,ENE,78,0.0,6.0,85,0.00,,,0.00,Wunderground v.1.15,2013-09-28 01:30:00,
2013-09-27 20:33:00,69.6,64.9,29.85,ENE,78,0.0,0.0,85,0.00,,---,0.00,VWS V14.01,2013-09-28 01:33:00,
2013-09-27 20:35:00,69.6,64.9,29.85,ENE,78,0.0,6.0,85,0.00,,,0.00,Wunderground v.1.15,2013-09-28 01:35:00,
2013-09-27 20:38:00,69.3,64.6,29.85,ENE,78,0.0,0.0,85,0.00,,---,0.00,VWS V14.01,2013-09-28 01:38:00,
2013-09-27 20:40:00,69.3,65.3,29.85,ENE,78,0.0,6.0,87,0.00,,,0.00,Wunderground v.1.15,2013-09-28 01:40:00,
2013-09-27 20:43:00,69.1,65.1,29.86,ENE,78,0.0,0.0,87,0.00,,---,0.00,VWS V14.01,2013-09-28 01:43:00,
2013-09-27 20:48:00,68.8,64.8,29.86,ENE,78,0.0,0.0,87,0.00,,---,0.00,VWS V14.01,2013-09-28 01:48:00,
2013-09-27 20:50:00,68.8,64.8,29.86,ENE,78,0.0,6.0,87,0.00,,,0.00,Wunderground v.1.15,2013-09-28 01:50:00,
2013-09-27 20:53:00,68.6,64.6,29.86,ENE,78,0.0,0.0,87,0.00,,---,0.00,VWS V14.01,2013-09-28 01:53:00,
2013-09-27 20:55:00,68.6,64.6,29.86,ENE,78,0.0,6.0,87,0.00,,,0.00,Wunderground v.1.15,2013-09-28 01:55:00,
2013-09-27 20:58:00,68.6,64.6,29.86,ENE,78,0.0,0.0,87,0.00,,---,0.00,VWS V14.01,2013-09-28 01:58:00,
2013-09-27 21:00:00,68.4,64.4,29.86,ENE,78,0.0,6.0,87,0.00,,,0.00,Wunderground v.1.15,2013-09-28 02:00:00,
2013-09-27 21:03:00,68.4,64.4,29.86,ENE,78,0.0,0.0,87,0.00,,---,0.00,VWS V14.01,2013-09-28 02:03:00,
2013-09-27 21:05:00,68.4,64.4,29.86,ENE,78,0.0,6.0,87,0.00,,,0.00,Wunderground v.1.15,2013-09-28 02:05:00,
2013-09-27 21:08:00,68.3,64.3,29.86,ENE,78,0.0,0.0,87,0.00,,---,0.00,VWS V14.01,2013-09-28 02:08:00,
2013-09-27 21:13:00,68.3,64.3,29.86,ENE,78,0.0,0.0,87,0.00,,---,0.00,VWS V14.01,2013-09-28 02:13:00,
2013-09-27 21:15:00,68.3,64.3,29.86,ENE,78,0.0,6.0,87,0.00,,,0.00,Wunderground v.1.15,2013-09-28 02:15:00,
2013-09-27 21:18:00,68.3,64.3,29.86,ENE,78,0.0,0.0,87,0.00,,---,0.00,VWS V14.01,2013-09-28 02:18:00,
2013-09-27 21:20:00,68.3,64.3,29.86,ENE,78,0.0,6.0,87,0.00,,,0.00,Wunderground v.1.15,2013-09-28 02:20:00,
2013-09-27 21:23:00,68.3,64.3,29.86,ENE,78,0.0,0.0,87,0.00,,---,0.00,VWS V14.01,2013-09-28 02:23:00,
2013-09-27 21:25:00,68.3,64.3,29.86,ENE,78,0.0,6.0,87,0.00,,,0.00,Wunderground v.1.15,2013-09-28 02:25:00,
2013-09-27 21:29:00,68.3,64.3,29.86,ENE,78,0.0,1.0,87,0.00,,---,0.00,VWS V14.01,2013-09-28 02:29:00,
2013-09-27 21:34:00,68.4,64.1,29.86,ENE,78,0.0,0.0,86,0.00,,---,0.00,VWS V14.01,2013-09-28 02:34:00,
2013-09-27 21:35:00,68.4,64.0,29.86,ENE,78,0.0,6.0,86,0.00,,,0.00,Wunderground v.1.15,2013-09-28 02:35:00,
2013-09-27 21:39:00,68.8,64.4,29.86,ENE,78,0.0,1.0,86,0.00,,---,0.00,VWS V14.01,2013-09-28 02:39:00,
2013-09-27 21:40:00,68.8,64.4,29.86,ENE,78,0.0,6.0,86,0.00,,,0.00,Wunderground v.1.15,2013-09-28 02:40:00,
2013-09-27 21:44:00,68.9,64.2,29.86,ENE,78,1.0,1.0,85,0.00,,---,0.00,VWS V14.01,2013-09-28 02:44:00,
2013-09-27 21:45:00,68.9,64.2,29.86,ENE,78,0.0,6.0,85,0.00,,,0.00,Wunderground v.1.15,2013-09-28 02:45:00,
2013-09-27 21:49:00,69.1,64.1,29.86,ENE,78,0.0,1.0,84,0.00,,---,0.00,VWS V14.01,2013-09-28 02:49:00,
2013-09-27 21:50:00,69.1,64.1,29.86,ENE,78,0.0,6.0,84,0.00,,,0.00,Wunderground v.1.15,2013-09-28 02:50:00,
2013-09-27 21:54:00,69.3,63.9,29.86,ENE,78,0.0,0.0,83,0.00,,---,0.00,VWS V14.01,2013-09-28 02:54:00,
2013-09-27 21:55:00,69.4,64.0,29.86,ENE,78,0.0,6.0,83,0.00,,,0.00,Wunderground v.1.15,2013-09-28 02:55:00,
2013-09-27 21:59:00,69.4,64.0,29.86,ENE,78,0.0,0.0,83,0.00,,---,0.00,VWS V14.01,2013-09-28 02:59:00,
2013-09-27 22:00:00,69.6,64.2,29.86,ENE,78,0.0,6.0,83,0.00,,,0.00,Wunderground v.1.15,2013-09-28 03:00:00,
2013-09-27 22:04:00,69.8,64.1,29.85,ENE,78,0.0,0.0,82,0.00,,---,0.00,VWS V14.01,2013-09-28 03:04:00,
2013-09-27 22:05:00,69.8,64.1,29.85,ENE,78,0.0,6.0,82,0.00,,,0.00,Wunderground v.1.15,2013-09-28 03:05:00,
2013-09-27 22:10:00,70.1,64.0,29.86,ENE,78,0.0,0.0,81,0.00,,---,0.00,VWS V14.01,2013-09-28 03:10:00,
2013-09-27 22:15:00,70.3,64.2,29.85,ENE,78,0.0,6.0,81,0.00,,,0.00,Wunderground v.1.15,2013-09-28 03:15:00,
2013-09-27 22:20:00,70.1,64.0,29.86,ENE,78,0.0,6.0,81,0.00,,,0.00,Wunderground v.1.15,2013-09-28 03:20:00,
2013-09-27 22:25:00,70.3,63.8,29.86,ENE,78,0.0,6.0,80,0.00,,,0.00,Wunderground v.1.15,2013-09-28 03:25:00,
2013-09-27 22:30:00,70.4,63.9,29.86,ENE,78,0.0,6.0,80,0.00,,,0.00,Wunderground v.1.15,2013-09-28 03:30:00,
2013-09-27 22:35:00,70.4,63.9,29.86,ENE,78,0.0,6.0,80,0.00,,,0.00,Wunderground v.1.15,2013-09-28 03:35:00,
2013-09-27 22:40:00,70.4,63.6,29.86,SSW,195,0.0,6.0,79,0.00,,,0.00,Wunderground v.1.15,2013-09-28 03:40:00,
2013-09-27 22:41:00,70.4,63.6,29.86,SSW,195,0.0,0.0,79,0.00,,---,0.00,VWS V14.01,2013-09-28 03:41:00,
2013-09-27 22:45:00,70.6,63.8,29.86,SSW,195,0.0,6.0,79,0.00,,,0.00,Wunderground v.1.15,2013-09-28 03:45:00,
2013-09-27 22:46:00,70.6,63.8,29.86,SSW,195,0.0,1.0,79,0.00,,---,0.00,VWS V14.01,2013-09-28 03:46:00,
2013-09-27 22:50:00,70.6,63.8,29.86,South,190,0.0,6.0,79,0.00,,,0.00,Wunderground v.1.15,2013-09-28 03:50:00,
2013-09-27 22:51:00,70.8,63.6,29.86,South,190,0.0,0.0,78,0.00,,---,0.00,VWS V14.01,2013-09-28 03:51:00,
2013-09-27 22:55:00,70.9,63.7,29.86,South,190,0.0,6.0,78,0.00,,,0.00,Wunderground v.1.15,2013-09-28 03:55:00,
2013-09-27 22:56:00,70.9,63.7,29.86,South,190,0.0,2.0,78,0.00,,---,0.00,VWS V14.01,2013-09-28 03:56:00,
2013-09-27 23:00:00,70.9,63.3,29.86,South,190,0.0,6.0,77,0.00,,,0.00,Wunderground v.1.15,2013-09-28 04:00:00,
2013-09-27 23:01:00,70.9,63.3,29.86,South,190,0.0,0.0,77,0.00,,---,0.00,VWS V14.01,2013-09-28 04:01:00,
2013-09-27 23:02:00,71.1,63.9,29.86,South,190,0.0,1.0,78,0.00,,---,0.00,VWS V14.01,2013-09-28 04:02:00,
2013-09-27 23:05:00,71.1,63.5,29.86,NNE,18,1.0,6.0,77,0.00,,,0.00,Wunderground v.1.15,2013-09-28 04:05:00,
2013-09-27 23:07:00,71.1,63.5,29.86,NNE,18,0.0,3.0,77,0.00,,---,0.00,VWS V14.01,2013-09-28 04:07:00,
2013-09-27 23:10:00,71.5,63.5,29.86,North,11,1.0,6.0,76,0.00,,,0.00,Wunderground v.1.15,2013-09-28 04:10:00,
2013-09-27 23:12:00,71.6,63.3,29.86,North,9,0.0,2.0,75,0.00,,---,0.00,VWS V14.01,2013-09-28 04:12:00,
2013-09-27 23:17:00,71.8,63.5,29.86,North,9,0.0,2.0,75,0.00,,---,0.00,VWS V14.01,2013-09-28 04:17:00,
2013-09-27 23:20:00,72.0,63.6,29.86,North,9,0.0,6.0,75,0.00,,,0.00,Wunderground v.1.15,2013-09-28 04:20:00,
2013-09-27 23:22:00,72.0,63.3,29.86,North,9,0.0,1.0,74,0.00,,---,0.00,VWS V14.01,2013-09-28 04:22:00,
2013-09-27 23:25:00,72.1,63.4,29.86,North,9,0.0,6.0,74,0.00,,,0.00,Wunderground v.1.15,2013-09-28 04:25:00,
2013-09-27 23:27:00,72.1,63.4,29.86,North,9,0.0,2.0,74,0.00,,---,0.00,VWS V14.01,2013-09-28 04:27:00,
2013-09-27 23:30:00,72.1,63.4,29.86,North,9,0.0,6.0,74,0.00,,,0.00,Wunderground v.1.15,2013-09-28 04:30:00,
2013-09-27 23:32:00,72.1,63.4,29.86,North,9,0.0,2.0,74,0.00,,---,0.00,VWS V14.01,2013-09-28 04:32:00,
2013-09-27 23:35:00,72.1,63.4,29.87,North,9,0.0,6.0,74,0.00,,,0.00,Wunderground v.1.15,2013-09-28 04:35:00,
2013-09-27 23:37:00,72.3,63.6,29.87,North,9,0.0,2.0,74,0.00,,---,0.00,VWS V14.01,2013-09-28 04:37:00,
2013-09-27 23:42:00,72.3,63.6,29.87,North,9,0.0,0.0,74,0.00,,---,0.00,VWS V14.01,2013-09-28 04:42:00,
2013-09-27 23:45:00,72.1,63.4,29.87,North,9,0.0,6.0,74,0.00,,,0.00,Wunderground v.1.15,2013-09-28 04:45:00,
2013-09-27 23:48:00,72.1,63.4,29.86,North,2,0.0,2.0,74,0.00,,---,0.00,VWS V14.01,2013-09-28 04:48:00,
2013-09-27 23:50:00,72.1,63.4,29.87,North,2,0.0,6.0,74,0.00,,,0.00,Wunderground v.1.15,2013-09-28 04:50:00,
2013-09-27 23:53:00,72.1,63.4,29.87,North,2,1.0,1.0,74,0.00,,---,0.00,VWS V14.01,2013-09-28 04:53:00,
2013-09-27 23:55:00,72.1,63.4,29.87,North,2,0.0,6.0,74,0.00,,,0.00,Wunderground v.1.15,2013-09-28 04:55:00,
2013-09-27 23:58:00,72.1,63.4,29.87,North,2,0.0,1.0,74,0.00,,---,0.00,VWS V14.01,2013-09-28 04:58:00,